This is the latest recevied weather packets stored in our database for station/object WB5CFT. If no packets are shown the sender has not sent any weather packets the latest 10 day(s).
| Time | Temp. | Humidity | Pressure | Rain* | Wind** | Luminosity | Snow |
|---|---|---|---|---|---|---|---|
| 1777900086 | 15.56° C | 76% | 1013.9 hPa | 0 mm | - | 97 W/m² | - |
| 1777899782 | 15° C | 77% | 1013.7 hPa | 0 mm | - | 71 W/m² | - |
| 1777899479 | 15.56° C | 77% | 1013.4 hPa | 0 mm | - | 53 W/m² | - |
| 1777899177 | 15° C | 77% | 1013.3 hPa | 0 mm | - | 54 W/m² | - |
| 1777898875 | 15° C | 77% | 1013.3 hPa | 0 mm | - | 48 W/m² | - |
| 1777898572 | 14.44° C | 78% | 1012.7 hPa | 0 mm | - | 35 W/m² | - |
| 1777898269 | 14.44° C | 77% | 1012.6 hPa | 0 mm | - | 18 W/m² | - |
| 1777897966 | 14.44° C | 78% | 1012.7 hPa | 0 mm | - | 18 W/m² | - |
| 1777897662 | 14.44° C | 78% | 1012.6 hPa | 0 mm | - | 16 W/m² | - |
| 1777897359 | 14.44° C | 77% | 1012.7 hPa | 0 mm | - | 9 W/m² | - |
| 1777897054 | 14.44° C | 76% | 1012.8 hPa | 0 mm | - | 4 W/m² | - |
| 1777896751 | 15° C | 76% | 1012.4 hPa | 0 mm | - | 3 W/m² | - |
| 1777896449 | 15° C | 75% | 1012.5 hPa | 0 mm | - | 1 W/m² | - |
| 1777896146 | 15° C | 74% | 1012.4 hPa | 0 mm | - | 1 W/m² | - |
| 1777895844 | 15° C | 74% | 1012.4 hPa | 0 mm | - | 0 W/m² | - |
| 1777895541 | 15.56° C | 73% | 1012.5 hPa | 0 mm | - | 0 W/m² | - |
| 1777895238 | 15.56° C | 72% | 1012.3 hPa | 0 mm | - | 0 W/m² | - |
| 1777894936 | 15.56° C | 72% | 1012.5 hPa | 0 mm | - | 0 W/m² | - |
| 1777894633 | 15.56° C | 73% | 1012.6 hPa | 0 mm | - | 0 W/m² | - |
| 1777894330 | 15° C | 73% | 1012.7 hPa | 0 mm | - | 0 W/m² | - |
| 1777894027 | 15.56° C | 72% | 1012.8 hPa | 0 mm | - | 0 W/m² | - |
| 1777893723 | 15.56° C | 72% | 1012.7 hPa | 0 mm | - | 0 W/m² | - |
| 1777893420 | 15.56° C | 72% | 1012.8 hPa | 0 mm | - | 0 W/m² | - |
| 1777893116 | 15.56° C | 72% | 1012.8 hPa | 0 mm | - | 0 W/m² | - |
| 1777892813 | 15.56° C | 71% | 1012.8 hPa | 0 mm | - | 0 W/m² | - |
* Rain latest hour (hover to see other rain measurements)
** Current wind speed in m/s (hover to see current wind gust speed)